Wind_Speed
57 57 58 58 58 59 60 61 62 63 63 64 65 65 65 67 68 69 70 71 74 78 81 84 88 90 90 91 92 95 93 92 93 94 97 91 88 91 92 89 85 88 83 83 80
55 57 58 58 59 60 60 62 64 65 66 67 68 69 70 71 73 74 75 76 76 78 79 80 83 87 89 93 95 101 96 98 100 96 97 96 91 91 94 91 87 89 86 84 83
52 53 53 55 57 58 60 62 63 64 65 67 68 70 72 74 75 77 78 80 81 82 82 83 83 86 88 91 96 100 100 104 101 100 102 103 95 97 94 94 95 97 95 92 85
42 46 51 50 50 52 55 57 59 61 63 66 69 70 71 74 75 77 79 81 82 84 86 89 88 88 90 91 93 98 101 104 104 107 101 104 108 104 98 97 97 95 95 92 87
29 35 39 43 45 46 48 51 52 53 56 59 62 64 65 68 70 73 76 79 82 84 86 89 91 92 95 96 96 94 96 102 107 110 108 109 104 110 99 99 103 98 97 96 90
11 20 25 30 33 36 40 43 45 47 49 51 53 53 57 59 62 64 66 68 71 75 80 86 90 92 94 98 98 97 95 95 103 110 115 114 110 118 105 102 108 97 101 98 94
18 9 13 20 24 27 29 32 34 36 38 41 43 46 47 49 53 55 58 61 64 68 71 72 77 86 93 97 97 97 99 98 98 106 111 118 112 117 120 114 105 104 107 106 102
53 34 21 14 17 20 23 25 28 30 34 38 39 41 44 45 48 49 51 52 53 56 60 62 64 69 77 85 93 96 97 100 101 100 107 117 118 124 119 119 102 106 109 111 106
69 65 55 39 25 19 20 25 28 28 30 33 36 37 38 39 41 43 44 44 46 49 52 55 57 61 64 68 75 82 93 100 104 104 105 110 116 128 124 123 118 113 108 107 103
65 63 61 60 58 50 35 24 22 25 30 35 36 37 38 37 39 39 38 37 38 40 45 48 51 52 54 56 58 64 72 84 98 107 108 107 110 121 128 128 123 120 118 107 101
67 63 58 59 58 56 56 53 46 33 24 28 34 38 40 41 41 41 40 38 38 39 42 43 46 47 48 51 51 55 63 73 85 97 106 110 107 113 122 125 127 124 125 125 112
66 64 63 60 56 57 57 56 55 54 48 38 26 26 33 40 44 45 44 43 41 40 42 44 44 46 47 49 50 48 52 62 75 88 98 110 110 111 117 122 128 130 134 133 124
66 65 63 63 61 57 55 57 57 57 57 55 50 40 28 27 34 41 46 48 47 45 44 44 47 45 46 48 49 48 47 50 60 75 90 101 112 115 118 121 125 133 135 136 132
64 66 65 62 62 60 57 55 56 58 59 58 58 55 49 39 28 29 37 46 50 51 51 50 47 49 49 47 47 50 48 48 51 61 79 92 103 113 117 120 124 129 134 135 133
63 62 64 63 63 61 58 57 55 56 58 59 60 60 59 55 48 33 28 33 41 49 55 55 53 51 52 52 49 49 50 51 51 55 63 82 96 99 111 119 121 127 130 134 138
64 66 62 62 64 65 59 57 57 55 57 61 62 63 63 63 60 52 38 29 33 39 48 55 56 57 56 54 54 53 52 53 53 55 56 65 87 88 101 116 119 122 126 129 134
66 63 64 61 61 63 63 62 57 57 56 57 61 63 65 67 66 64 59 45 36 31 36 44 50 56 61 61 58 56 58 57 57 58 58 61 65 77 92 105 117 121 125 128 130
66 65 64 64 60 62 65 64 62 60 58 57 59 61 63 65 68 67 67 61 44 36 32 34 40 48 56 60 64 63 62 62 60 62 61 62 59 67 84 96 108 119 125 130 131
65 66 63 65 63 62 63 66 67 62 60 61 59 63 64 66 69 70 70 69 54 41 35 34 37 40 45 51 59 66 70 70 65 65 65 66 68 70 80 95 106 114 121 127 130
66 65 65 65 63 62 62 65 67 68 64 64 63 64 66 68 70 72 74 72 64 45 39 34 32 42 39 41 47 53 65 71 71 69 70 70 72 76 85 89 95 106 113 122 128
64 64 67 65 66 67 63 64 67 68 69 66 66 65 67 69 72 75 76 75 70 54 40 35 34 41 42 37 38 43 50 59 63 67 71 74 75 86 91 91 90 93 100 112 123
64 66 66 65 67 69 70 67 67 70 70 68 68 67 69 70 73 77 78 78 75 61 43 39 33 39 41 38 38 35 38 43 47 54 60 65 68 81 82 86 88 90 91 97 104
64 65 65 68 65 70 70 69 68 71 74 72 72 71 70 72 72 75 80 82 78 65 43 40 39 35 39 39 38 38 40 41 43 49 57 57 60 66 69 72 73 74 85 93 98
61 64 67 67 69 69 69 75 70 70 74 73 74 74 74 72 74 75 79 81 81 71 50 38 41 38 33 35 36 38 41 41 40 46 49 56 52 62 54 57 54 57 69 76 85
61 62 64 66 68 69 69 73 74 69 72 74 73 77 77 74 75 79 82 84 83 72 53 39 42 39 33 31 31 35 38 36 36 42 43 54 55 44 47 45 41 47 55 62 64
59 62 64 65 68 71 70 72 76 72 73 74 76 78 79 77 76 79 81 86 86 75 53 42 41 39 36 28 28 31 34 29 31 39 37 44 51 41 40 39 36 37 41 44 48
62 62 64 64 66 70 72 72 75 76 76 74 77 79 81 80 79 81 84 86 84 71 55 45 40 37 37 22 20 32 25 29 31 31 30 38 40 35 35 30 28 28 33 33 35
Wind_Direction
239 239 239 239 239 241 243 245 246 247 247 247 247 247 247 247 247 246 245 244 243 242 241 240 239 240 238 235 236 235 236 234 234 238 239 240 240 240 242 241 243 245 246 247 245
240 239 240 241 243 244 245 245 247 248 249 249 250 250 250 250 250 249 248 246 245 244 243 244 242 240 238 236 233 233 235 232 231 232 235 241 241 240 241 241 242 242 244 244 245
242 242 243 244 246 247 248 249 250 252 253 254 253 253 252 252 251 251 249 248 248 246 245 244 244 244 241 238 236 233 232 230 231 231 233 236 236 239 243 246 244 244 243 244 244
245 245 245 247 249 251 252 254 255 255 256 256 256 256 256 256 255 255 253 252 250 249 248 246 245 245 244 243 239 236 233 230 229 230 229 233 230 236 240 241 243 242 242 240 242
250 250 249 250 251 254 256 258 259 260 260 260 260 259 258 258 257 257 257 256 255 253 252 250 248 247 245 244 243 239 236 233 230 229 229 229 232 235 236 239 240 240 241 242 243
267 258 255 257 260 262 262 262 262 262 263 262 262 261 260 260 260 259 259 258 257 256 255 254 251 248 247 246 243 242 239 234 233 231 229 228 229 226 231 235 238 240 243 243 245
33 341 300 274 271 271 271 268 267 267 266 265 264 263 262 261 261 260 260 259 258 257 257 256 254 252 250 248 245 241 240 238 233 232 231 230 228 230 226 229 235 238 239 241 243
49 42 24 338 305 291 284 280 278 278 271 268 269 268 266 262 263 262 262 263 261 258 256 256 255 253 252 250 247 242 239 237 236 232 231 230 228 230 226 227 232 236 237 240 238
49 50 48 41 21 349 318 298 291 286 278 273 273 272 269 268 270 271 269 267 261 259 259 257 255 254 252 251 249 245 240 236 234 234 231 229 228 230 227 228 229 235 235 234 237
44 47 46 46 45 43 33 5 329 305 292 283 278 275 273 271 270 270 270 268 259 257 256 256 253 252 253 252 250 247 241 235 232 231 232 230 227 230 231 230 232 232 236 237 237
39 40 42 43 42 41 41 39 35 21 341 305 289 279 273 270 268 267 265 266 266 259 256 257 256 254 250 251 252 246 242 235 230 227 227 229 228 230 231 231 231 232 233 239 238
33 35 36 37 39 38 37 36 36 34 30 21 353 309 284 274 269 266 265 264 264 265 263 258 258 254 251 248 250 250 246 240 234 229 224 226 226 229 231 230 230 232 234 238 240
32 29 29 30 30 32 33 31 31 31 30 28 24 16 351 311 285 271 265 264 263 262 262 262 258 256 254 252 249 250 249 244 239 233 228 225 224 225 229 230 230 231 234 238 241
27 28 27 25 25 25 27 26 27 26 26 25 24 21 17 7 336 299 280 270 263 260 259 259 258 256 255 253 252 251 249 247 242 237 232 227 224 226 228 230 232 232 233 235 239
19 20 20 23 22 22 21 22 21 21 20 21 21 20 19 15 9 348 314 286 275 267 261 255 256 255 254 253 250 249 248 247 245 241 236 234 225 228 229 232 233 233 234 235 237
16 16 18 16 18 19 20 17 19 18 14 15 15 16 15 14 11 7 349 319 291 277 268 262 254 252 253 252 251 250 248 245 245 245 240 238 231 229 233 231 233 234 235 237 237
14 14 17 14 13 15 16 16 13 14 13 10 12 11 11 10 10 6 2 346 324 301 279 270 263 256 252 251 251 250 249 248 243 244 243 242 237 234 234 235 235 235 236 237 238
10 11 12 14 13 11 13 12 11 9 8 9 6 8 7 7 6 6 1 359 340 319 300 280 268 263 258 252 250 250 250 249 247 247 244 243 241 240 237 236 235 236 237 237 237
5 7 7 10 11 9 9 10 10 7 4 4 3 3 3 4 3 3 2 0 351 333 315 294 280 266 257 256 253 250 251 250 247 247 247 246 244 241 244 238 235 236 237 239 239
1 2 5 5 6 6 5 6 5 7 4 360 1 358 360 359 360 1 360 357 354 340 327 309 287 279 270 258 255 253 252 252 252 249 248 246 246 248 245 243 239 238 238 238 240
356 358 358 1 1 3 2 1 3 4 4 0 358 355 356 357 355 358 358 356 353 344 329 322 297 279 275 271 263 254 252 252 253 254 252 249 250 247 247 245 242 241 241 242 242
351 354 354 355 357 0 0 359 1 360 2 360 357 355 352 354 352 354 354 354 351 345 331 323 309 289 282 273 266 264 259 257 256 254 255 253 250 251 251 250 247 245 243 243 243
347 349 351 352 353 355 356 359 358 357 358 358 356 355 351 350 351 350 351 350 349 344 332 322 318 303 286 279 269 263 261 258 257 258 259 257 256 255 255 253 250 247 245 243 243
345 346 348 349 350 351 352 355 354 353 354 355 353 352 352 348 347 348 349 348 346 342 332 323 316 315 297 279 269 261 261 267 267 261 256 260 259 259 258 258 255 247 248 246 245
344 342 344 346 346 348 349 350 351 351 351 353 351 350 351 347 346 346 347 347 343 339 332 321 314 316 304 277 270 260 263 271 264 264 261 265 268 265 265 264 257 248 247 247 249
335 339 341 344 341 342 345 348 348 348 348 349 350 346 349 346 345 345 346 344 341 335 332 318 315 314 298 288 276 266 269 269 262 259 257 262 268 276 273 269 263 253 250 248 246
332 334 336 339 339 338 341 344 345 347 346 347 347 346 346 344 344 343 344 342 339 333 328 321 318 310 293 294 269 265 273 269 268 270 266 265 266 274 275 268 260 251 248 247 246
Height
10631 10638 10643 10649 10653 10658 10662 10666 10670 10674 10678 10681 10685 10689 10693 10696 10699 10702 10706 10709 10712 10716 10721 10727 10732 10739 10746 10755 10765 10775 10787 10800 10805 10811 10821 10826 10835 10835 10840 10846 10857 10861 10869 10875 10880
10620 10626 10632 10638 10643 10648 10652 10655 10658 10662 10666 10669 10673 10676 10678 10681 10684 10686 10690 10694 10698 10701 10705 10709 10714 10719 10727 10733 10744 10751 10768 10777 10784 10796 10806 10809 10814 10819 10819 10826 10839 10845 10852 10857 10864
10612 10618 10623 10629 10634 10638 10641 10644 10648 10652 10656 10658 10660 10661 10663 10665 10668 10669 10673 10677 10680 10684 10688 10692 10697 10701 10709 10713 10723 10734 10746 10754 10769 10777 10789 10794 10795 10801 10807 10812 10818 10825 10834 10843 10849
10604 10611 10617 10621 10626 10630 10633 10635 10638 10641 10643 10643 10645 10647 10649 10651 10652 10653 10656 10659 10663 10666 10670 10673 10678 10684 10688 10694 10703 10713 10723 10734 10747 10756 10767 10771 10776 10785 10794 10797 10796 10803 10815 10830 10837
10599 10606 10611 10615 10619 10622 10624 10626 10629 10630 10630 10631 10632 10633 10634 10634 10635 10636 10639 10642 10644 10647 10650 10654 10658 10662 10667 10673 10681 10692 10703 10715 10723 10735 10744 10747 10758 10765 10781 10775 10771 10785 10796 10812 10825
10598 10602 10606 10610 10613 10615 10616 10618 10619 10620 10620 10620 10620 10620 10620 10620 10620 10622 10623 10623 10624 10625 10628 10631 10634 10639 10644 10648 10659 10670 10681 10692 10702 10711 10718 10728 10734 10745 10757 10755 10751 10775 10783 10796 10808
10600 10603 10605 10607 10609 10610 10610 10610 10610 10611 10611 10609 10608 10607 10607 10608 10607 10607 10606 10606 10606 10607 10608 10611 10612 10615 10618 10624 10634 10647 10656 10668 10676 10685 10697 10703 10724 10726 10730 10732 10751 10758 10762 10771 10787
10606 10605 10606 10606 10606 10605 10604 10603 10603 10602 10601 10600 10599 10597 10596 10596 10594 10593 10592 10591 10589 10589 10591 10591 10592 10593 10595 10601 10609 10620 10630 10642 10652 10664 10668 10679 10704 10694 10709 10723 10736 10733 10742 10750 10762
10617 10613 10610 10606 10603 10601 10599 10597 10595 10593 10592 10590 10587 10586 10584 10584 10582 10580 10579 10577 10575 10575 10575 10576 10576 10576 10578 10581 10584 10593 10603 10614 10625 10636 10646 10658 10677 10675 10690 10703 10718 10713 10719 10729 10742
10627 10622 10617 10612 10607 10601 10596 10591 10587 10584 10581 10579 10576 10575 10574 10573 10570 10568 10566 10564 10562 10561 10560 10560 10562 10563 10564 10564 10568 10572 10577 10585 10596 10611 10622 10637 10653 10655 10664 10684 10694 10700 10699 10710 10722
10636 10631 10625 10618 10612 10606 10599 10593 10586 10579 10573 10568 10565 10563 10562 10561 10558 10556 10554 10552 10550 10549 10549 10548 10548 10550 10551 10550 10551 10553 10556 10563 10571 10584 10600 10613 10629 10637 10642 10662 10670 10679 10682 10686 10696
10643 10636 10630 10624 10616 10610 10603 10596 10588 10581 10573 10565 10558 10552 10548 10546 10544 10543 10542 10541 10539 10537 10536 10535 10535 10537 10538 10538 10538 10541 10544 10549 10554 10563 10578 10588 10607 10615 10623 10633 10644 10651 10660 10665 10671
10646 10640 10634 10627 10619 10611 10604 10598 10589 10581 10573 10564 10557 10549 10541 10536 10533 10530 10529 10527 10525 10525 10524 10522 10522 10523 10525 10526 10527 10528 10532 10536 10541 10548 10558 10569 10584 10594 10596 10608 10618 10625 10635 10643 10649
10649 10642 10635 10628 10621 10613 10605 10598 10590 10581 10573 10565 10557 10547 10538 10530 10523 10518 10515 10513 10512 10511 10509 10509 10510 10509 10510 10513 10517 10518 10523 10524 10528 10532 10540 10548 10566 10572 10580 10584 10593 10603 10614 10623 10629
10651 10643 10636 10628 10621 10614 10606 10598 10589 10581 10574 10565 10556 10547 10538 10529 10520 10511 10504 10500 10497 10495 10493 10494 10495 10496 10496 10499 10502 10505 10508 10512 10516 10519 10525 10527 10548 10552 10559 10561 10568 10577 10588 10599 10607
10653 10645 10637 10629 10621 10613 10605 10597 10588 10579 10571 10561 10551 10543 10535 10526 10516 10506 10497 10490 10484 10481 10477 10474 10481 10481 10483 10485 10488 10491 10493 10498 10503 10504 10511 10512 10528 10541 10534 10540 10546 10555 10562 10573 10583
10655 10646 10638 10629 10620 10612 10604 10595 10586 10577 10569 10561 10551 10539 10529 10519 10510 10500 10491 10480 10473 10468 10463 10461 10461 10465 10467 10469 10473 10477 10477 10482 10486 10489 10495 10499 10512 10521 10510 10516 10524 10532 10539 10545 10552
10655 10647 10638 10628 10620 10612 10602 10593 10584 10575 10566 10558 10549 10540 10530 10520 10509 10499 10486 10474 10464 10457 10452 10449 10447 10446 10447 10452 10456 10459 10462 10465 10472 10473 10479 10486 10498 10491 10488 10488 10499 10507 10512 10518 10530
10654 10646 10637 10627 10618 10609 10600 10591 10582 10573 10563 10553 10544 10535 10524 10514 10504 10494 10483 10472 10460 10449 10442 10437 10432 10429 10430 10434 10438 10442 10442 10444 10453 10458 10463 10468 10472 10475 10461 10465 10477 10482 10487 10495 10509
10654 10645 10636 10627 10617 10608 10599 10590 10579 10569 10559 10548 10537 10527 10518 10507 10497 10488 10476 10465 10454 10444 10434 10428 10423 10412 10414 10419 10421 10424 10424 10425 10431 10439 10443 10450 10451 10451 10440 10444 10455 10462 10468 10476 10481
10653 10644 10636 10626 10616 10607 10597 10587 10577 10567 10555 10543 10532 10522 10512 10502 10488 10479 10469 10458 10447 10436 10427 10420 10412 10402 10401 10404 10406 10407 10407 10407 10410 10415 10418 10424 10432 10417 10411 10419 10430 10438 10443 10451 10458
10649 10641 10632 10623 10613 10604 10593 10582 10571 10562 10553 10542 10529 10517 10506 10495 10482 10468 10460 10451 10439 10428 10418 10410 10404 10394 10390 10392 10391 10393 10393 10394 10397 10397 10398 10398 10406 10390 10400 10403 10408 10413 10423 10428 10428
10646 10637 10628 10618 10608 10598 10588 10579 10567 10556 10546 10536 10525 10512 10499 10488 10479 10465 10452 10439 10429 10419 10410 10400 10392 10387 10379 10377 10379 10380 10380 10382 10384 10382 10379 10382 10381 10373 10373 10377 10380 10390 10392 10397 10403
10641 10633 10624 10614 10603 10592 10581 10572 10563 10552 10540 10530 10519 10507 10495 10482 10471 10461 10448 10434 10418 10407 10398 10391 10381 10375 10371 10366 10365 10365 10365 10367 10368 10364 10362 10357 10364 10347 10363 10360 10361 10368 10370 10378 10384
10637 10628 10620 10612 10601 10591 10580 10570 10559 10549 10539 10528 10515 10502 10490 10477 10464 10448 10435 10423 10408 10397 10388 10381 10371 10365 10358 10355 10355 10354 10354 10354 10352 10348 10350 10340 10337 10347 10344 10344 10346 10350 10353 10357 10368
10632 10624 10615 10608 10598 10586 10578 10567 10555 10543 10533 10521 10509 10495 10484 10471 10457 10442 10430 10412 10396 10381 10377 10369 10362 10355 10345 10346 10346 10343 10343 10343 10341 10338 10340 10335 10328 10333 10331 10330 10333 10337 10342 10349 10353
10621 10615 10608 10601 10592 10580 10570 10561 10551 10538 10524 10515 10503 10488 10473 10460 10445 10431 10418 10405 10390 10373 10361 10356 10350 10344 10334 10337 10337 10331 10333 10331 10329 10328 10330 10326 10324 10322 10320 10321 10324 10329 10333 10340 10346